Weather History for Berlin, NH

Change the Weather History Date:

Wednesday, March 5, 2014

  Actual Average Record
Temperature  
Mean Temperature 8 °F -  
Max Temperature 19 °F 30 °F 48 °F (2011)
Min Temperature -8 °F 7 °F -13 °F (2009)
Degree Days  
Heating Degree Days 56    
Moisture  
Dew Point 4 °F    
Average Humidity 67    
Maximum Humidity 84    
Minimum Humidity 50    
Precipitation  
Precipitation 0.00 in - - ()
Sea Level Pressure  
Sea Level Pressure 30.32 in    
Wind  
Wind Speed 3 mph (NNW)    
Max Wind Speed 10 mph    
Max Gust Speed -    
Visibility 7 miles    
Events Snow    
Averages and records for this station are not official NWS values.
T = Trace of Precipitation, MM = Missing Value Source: NWS Daily Summary

Daily Weather History Graph

Daily Weather History Graph

Search for Another Location

Airport:

Trip Planner

Search our weather history database for the weather conditions in past years. The results will help you decide how hot, cold, wet, or windy it might be!

Date:

Astronomy

Mar. 05, 2014 Rise Set
Actual Time 6:15 AM EST 5:37 PM EST
Civil Twilight 5:46 AM EST 6:07 PM EST
Nautical Twilight 5:12 AM EST 6:40 PM EST
Astronomical Twilight 4:38 AM EST 7:14 PM EST
Moon 8:26 AM EST (3/5) 10:56 PM EST (3/5)
Length of Visible Light 12h 20m
Length of Day
11h 22m
Waxing Crescent, 23% of the Moon is Illuminated
Mar 5
Waxing Crescent
Mar 8
First Quarter
Mar 16
Full
Mar 23
Last Quarter
Mar 30
New

Hourly Weather History & Observations

Time (EST) Temp. Windchill Dew Point Humidity Pressure Visibility Wind Dir Wind Speed Gust Speed Precip Events Conditions
12:52 AM 9.0 °F - 3.9 °F 80% 30.27 in 10.0 mi Calm Calm - N/A   Overcast
1:52 AM 9.0 °F - 3.9 °F 80% 30.27 in 10.0 mi Calm Calm - 0.00 in   Overcast
2:52 AM 8.1 °F - 3.9 °F 83% 30.27 in 7.0 mi Calm Calm - 0.00 in Snow Light Snow
3:52 AM 8.1 °F - 3.9 °F 83% 30.28 in 5.0 mi Calm Calm - 0.00 in Snow Light Snow
4:52 AM 8.1 °F - 3.9 °F 83% 30.29 in 4.0 mi Calm Calm - 0.00 in Snow Light Snow
5:52 AM 8.1 °F - 3.9 °F 83% 30.30 in 5.0 mi Calm Calm - 0.00 in Snow Light Snow
6:52 AM 8.1 °F - 3.9 °F 83% 30.30 in 7.0 mi Calm Calm - 0.00 in   Overcast
7:52 AM 9.0 °F - 5.0 °F 84% 30.32 in 8.0 mi Calm Calm - N/A   Overcast
8:52 AM 12.9 °F - 3.9 °F 67% 30.32 in 10.0 mi Calm Calm - N/A   Overcast
9:52 AM 15.1 °F - 3.0 °F 59% 30.32 in 10.0 mi Calm Calm - N/A   Overcast
10:52 AM 18.0 °F 12.7 °F 3.0 °F 52% 30.32 in 10.0 mi Variable 3.5 mph - N/A   Overcast
11:52 AM 19.0 °F 10.0 °F 3.0 °F 50% 30.30 in 10.0 mi NNW 6.9 mph - N/A   Overcast
12:52 PM 19.0 °F 9.0 °F 7.0 °F 59% 30.29 in 10.0 mi NNW 8.1 mph - N/A   Overcast
1:25 PM 19.0 °F 8.2 °F 8.1 °F 62% 30.22 in 2.0 mi North 9.2 mph - 0.00 in Snow Light Snow
1:33 PM 18.0 °F 7.7 °F 10.0 °F 71% 30.22 in 1.5 mi North 8.1 mph - 0.00 in Snow Light Snow
1:44 PM 18.0 °F 9.8 °F 10.0 °F 71% 30.22 in 0.8 mi NNE 5.8 mph - 0.00 in Snow Light Snow
1:52 PM 18.0 °F 11.1 °F 10.9 °F 74% 30.30 in 0.8 mi North 4.6 mph - 0.00 in Snow Light Snow
1:59 PM 19.9 °F 12.1 °F 12.0 °F 71% 30.22 in 1.0 mi North 5.8 mph - 0.00 in Snow Light Snow
2:15 PM 18.0 °F 9.8 °F 10.9 °F 74% 30.23 in 0.8 mi NNW 5.8 mph - 0.00 in Snow Light Snow
2:20 PM 18.0 °F 8.7 °F 10.9 °F 74% 30.23 in 1.2 mi Variable 6.9 mph - 0.00 in Snow Light Snow
2:24 PM 18.0 °F 9.8 °F 10.0 °F 71% 30.23 in 2.0 mi North 5.8 mph - 0.00 in Snow Light Snow
2:32 PM 18.0 °F 11.1 °F 10.0 °F 71% 30.23 in 1.8 mi North 4.6 mph - 0.00 in Snow Light Snow
2:37 PM 19.0 °F 8.2 °F 7.0 °F 59% 30.23 in 3.0 mi NW 9.2 mph - 0.00 in Snow Light Snow
2:50 PM 19.4 °F 10.4 °F 5.0 °F 54% 30.23 in 8.0 mi North 6.9 mph - 0.00 in   Overcast
2:52 PM 19.9 °F 11.1 °F 5.0 °F 52% 30.31 in 9.0 mi NNW 6.9 mph - 0.00 in   Overcast
3:52 PM 18.0 °F 6.1 °F 1.9 °F 50% 30.34 in 10.0 mi NW 10.4 mph - N/A   Overcast
4:52 PM 16.0 °F 5.3 °F 3.0 °F 57% 30.38 in 10.0 mi NNW 8.1 mph - N/A   Overcast
5:52 PM 14.0 °F 2.0 °F -0.9 °F 52% 30.41 in 10.0 mi NNW 9.2 mph - N/A   Overcast
6:52 PM 12.0 °F -0.4 °F -0.9 °F 56% 30.45 in 10.0 mi NW 9.2 mph - N/A   Scattered Clouds
7:52 PM 9.0 °F 0.6 °F -6.0 °F 51% 30.48 in 10.0 mi NW 4.6 mph - N/A   Clear
8:52 PM 7.0 °F -6.6 °F -7.1 °F 53% 30.50 in 10.0 mi NNW 9.2 mph - N/A   Clear
9:52 PM 5.0 °F -4.1 °F -8.0 °F 55% 30.52 in 10.0 mi NNW 4.6 mph - N/A   Clear
10:52 PM -2.9 °F -11.2 °F -9.0 °F 75% 30.54 in 10.0 mi East 3.5 mph - N/A   Clear
11:52 PM -8.0 °F - -13.0 °F 79% 30.56 in 10.0 mi Calm Calm - N/A   Clear